Showing default

COSMOS 2516 (GLONASS), 41554

Orbit data source: Space-Track

COSMOS 2516 (GLONASS), 41554 is a Commonwealth of Independent States-origin payload satellite in MEO that was launched on Sun, 29 May 2016 UTC via a SOYUZ-2-1B launch vehicle from the Plesetsk Missile And Space Complex (PKMTR). Payload-class satellites include a variety of spacecraft equipped with specific instruments for various scientific and technological missions. These include communications satellites like Starlink; space stations such as the ISS; scientific satellites like the Hubble; Earth observation satellites from companies like Planet Labs, Umbra, and HawkEye 360; GPS; miniature CubeSats for education and research; and military/defense satellites.

Loading next visibility...
Identifier
41554, 2016-032A
Orbit
MEO
Country
Flag of CISCIS
Related business
Manufacturer
Resehetnev ISS
Mission
Non-operational Defense Navigation
Bus & Motor
URAGAN, Unknown motor
Mass
1,450 kg wet, ~1,200 kg dry
Launch date (UTC)
2016-05-29 (10 years ago)
Launch vehicle
SOYUZ-2-1B
Launch site
Plesetsk Missile And Space Complex (PKMTR)
Object type
Payload
Rocket body
Debris
Shape & HBR
Cyl + 1 Ant + 2 Pan, 3.9 m
Radar Cross Section
8.467 m², Large (>1 m²)

Expand to show TLE details & history
Last TLE update: 2 days ago

TLE from 2 days ago
0 COSMOS 2516 (GLONASS)
1 41554U 16032A   26171.18860846  .00000063  00000-0  00000+0 0  9997
2 41554  63.8443 190.9568 0018150 215.0418 144.8804  2.13106610 78298
Epoch: 2026-06-20T04:31Z
TLE epoch observation values (Epoch: 2026-06-20T04:31:35.770Z)
Latitude
-0.00005°
Longitude
-145.34643°
Altitude
19,167.946 km
Speed
3.947 km/s
True Right ascension
12h 43m 50s
True Declination
0° 00' 00"
Sunlit
Object was in daylight at epoch
Visualization orbit readout
Latitude
Unknown
Longitude
Unknown
Altitude
Unknown
Speed
Unknown
Apparent Right ascension
Unknown
Apparent Declination
Unknown
Sunlit
N/A
Visualization observer readout
Local Sidereal Time
21:25:45
Azimuth
Unknown
Elevation
Unknown
Doppler factor
Unknown
Orbital elements
Apogee altitude
19,175.471 km
Perigee altitude
19,082.879 km
Semi-major axis
25,507.312 km
Eccentricity
0.00182
Inclination
63.8443°
RAAN
190.9568°
Arg. of periapsis
215.0418°
True anomaly
144.99983°
Mean anomaly
144.8804°
Eccentric anomaly
144.94014°
Mean motion
0.53278 °/min
Orbital period
675.7 mins
BSTAR
0
Loading maneuver chart data...
Computing Atmospheric mass density...
Loading historical data...
Loading historical data...
Loading historical data...
Loading historical data...
Loading historical data...
Loading historical data...
Loading historical data...
Other satellites on launch #32 in the year 2016 (2016-05-29 UTC)

Documentation

Showing up to 5 results
|